| time (UTC) | temp F | wind direction | speed MPH | gust MPH | rain 1hr in | rain 24hr in | rain mn in | humidity % | barometer mb |
| 20260508101028 | 63 | 69 | 4.0 | 9.0 | 0.00 | 0.24 | 0.01 | 87 | 1013.1 |
| 20260508100019 | 63 | 64 | 5.0 | 9.0 | 0.00 | 0.24 | 0.01 | 88 | 1013.2 |
| 20260508095047 | 63 | 73 | 5.0 | 7.0 | 0.00 | 0.24 | 0.01 | 88 | 1013.3 |
| 20260508094039 | 62 | 50 | 7.0 | 10.0 | 0.00 | 0.24 | 0.01 | 89 | 1013.3 |
| 20260508093027 | 62 | 59 | 6.0 | 10.0 | 0.00 | 0.24 | 0.01 | 90 | 1013.2 |
| 20260508092019 | 61 | 51 | 6.0 | 10.0 | 0.00 | 0.24 | 0.01 | 91 | 1013.2 |
| 20260508091027 | 61 | 57 | 6.0 | 9.0 | 0.00 | 0.24 | 0.01 | 91 | 1013.3 |
| 20260508090019 | 61 | 64 | 7.0 | 10.0 | 0.00 | 0.24 | 0.01 | 92 | 1013.0 |
| 20260508085029 | 60 | 51 | 7.0 | 12.0 | 0.00 | 0.24 | 0.01 | 93 | 1013.0 |
| 20260508084022 | 60 | 52 | 7.0 | 11.0 | 0.00 | 0.24 | 0.01 | 94 | 1012.7 |
| 20260508083027 | 60 | 52 | 7.0 | 10.0 | 0.00 | 0.24 | 0.01 | 94 | 1012.9 |
| 20260508082019 | 60 | 74 | 6.0 | 9.0 | 0.00 | 0.24 | 0.01 | 94 | 1013.1 |
| 20260508081028 | 60 | 61 | 7.0 | 10.0 | 0.00 | 0.24 | 0.01 | 95 | 1013.0 |
| 20260508080019 | 60 | 71 | 6.0 | 9.0 | 0.00 | 0.24 | 0.01 | 95 | 1012.9 |
| 20260508075027 | 60 | 79 | 6.0 | 10.0 | 0.00 | 0.24 | 0.01 | 96 | 1012.5 |
| 20260508074018 | 59 | 77 | 7.0 | 11.0 | 0.00 | 0.24 | 0.01 | 97 | 1012.6 |
| 20260508073127 | 59 | 59 | 4.0 | 8.0 | 0.00 | 0.24 | 0.01 | 97 | 1012.6 |
| 20260508072019 | 58 | 55 | 6.0 | 9.0 | 0.00 | 0.24 | 0.01 | 97 | 1012.6 |
| 20260508071047 | 57 | 57 | 4.0 | 6.0 | 0.00 | 0.24 | 0.01 | 97 | 1012.6 |
| 20260508070018 | 57 | 58 | 4.0 | 6.0 | 0.00 | 0.24 | 0.01 | 97 | 1012.5 |
| 20260508065027 | 57 | 57 | 4.0 | 7.0 | 0.00 | 0.24 | 0.01 | 97 | 1012.5 |
| 20260508064038 | 57 | 59 | 4.0 | 8.0 | 0.00 | 0.24 | 0.01 | 97 | 1012.4 |
| 20260508063026 | 56 | 65 | 5.0 | 9.0 | 0.00 | 0.24 | 0.01 | 97 | 1012.3 |
| 20260508062018 | 56 | 55 | 5.0 | 9.0 | 0.00 | 0.24 | 0.01 | 97 | 1012.1 |
| 20260508061027 | 56 | 62 | 4.0 | 8.0 | 0.00 | 0.24 | 0.01 | 97 | 1012.1 |
| 20260508060019 | 57 | 49 | 4.0 | 5.0 | 0.00 | 0.24 | 0.01 | 98 | 1012.1 |
| 20260508055027 | 56 | 35 | 4.0 | 7.0 | 0.00 | 0.24 | 0.01 | 97 | 1012.0 |
| 20260508054019 | 56 | 48 | 4.0 | 6.0 | 0.00 | 0.24 | 0.01 | 97 | 1011.8 |
| 20260508053027 | 56 | 45 | 4.0 | 6.0 | 0.00 | 0.24 | 0.01 | 97 | 1011.5 |
| 20260508052039 | 56 | 26 | 3.0 | 5.0 | 0.00 | 0.24 | 0.01 | 97 | 1011.4 |
| 20260508051027 | 56 | 67 | 1.0 | 2.0 | 0.00 | 0.24 | 0.01 | 97 | 1011.0 |
| 20260508050040 | 55 | 122 | 1.0 | 2.0 | 0.00 | 0.24 | 0.01 | 97 | 1010.9 |
| 20260508045027 | 56 | 70 | 1.0 | 4.0 | 0.00 | 0.24 | 0.01 | 97 | 1010.7 |
| 20260508044020 | 56 | 66 | 1.0 | 3.0 | 0.00 | 0.24 | 0.01 | 97 | 1010.6 |
| 20260508043027 | 56 | 67 | 3.0 | 5.0 | 0.00 | 0.24 | 0.01 | 97 | 1010.8 |
| 20260508042100 | 56 | 46 | 4.0 | 5.0 | 0.00 | 0.24 | 0.01 | 97 | 1010.6 |
| 20260508041028 | 56 | 34 | 5.0 | 8.0 | 0.00 | 0.24 | 0.01 | 97 | 1010.5 |
| 20260508040020 | 56 | 41 | 5.0 | 6.0 | 0.00 | 0.24 | 0.01 | 97 | 1010.5 |
| 20260508035027 | 56 | 43 | 5.0 | 7.0 | 0.00 | 0.24 | 0.01 | 97 | 1010.5 |
| 20260508034039 | 56 | 26 | 4.0 | 6.0 | 0.00 | 0.25 | 0.01 | 97 | 1010.6 |
| 20260508033027 | 57 | 46 | 3.0 | 6.0 | 0.00 | 0.25 | 0.01 | 97 | 1010.7 |
| 20260508032019 | 57 | 39 | 3.0 | 5.0 | 0.00 | 0.25 | 0.01 | 97 | 1010.9 |
| 20260508031047 | 57 | 50 | 3.0 | 6.0 | 0.00 | 0.25 | 0.01 | 97 | 1011.0 |
| 20260508030019 | 56 | 62 | 4.0 | 6.0 | 0.00 | 0.25 | 0.01 | 97 | 1010.8 |
| 20260508025027 | 56 | 56 | 4.0 | 7.0 | 0.00 | 0.25 | 0.01 | 97 | 1010.8 |
| 20260508024019 | 56 | 61 | 4.0 | 7.0 | 0.00 | 0.25 | 0.01 | 97 | 1010.7 |
| 20260508023035 | 56 | 40 | 4.0 | 6.0 | 0.00 | 0.25 | 0.01 | 97 | 1010.8 |
| 20260508022018 | 56 | 52 | 4.0 | 8.0 | 0.00 | 0.25 | 0.01 | 97 | 1010.6 |
| 20260508021027 | 56 | 54 | 5.0 | 8.0 | 0.00 | 0.25 | 0.01 | 97 | 1010.6 |
| 20260508020019 | 56 | 62 | 3.0 | 5.0 | 0.00 | 0.25 | 0.01 | 97 | 1010.6 |
| 20260508015047 | 56 | 67 | 2.0 | 5.0 | 0.00 | 0.25 | 0.01 | 97 | 1010.8 |
| 20260508014019 | 56 | 48 | 4.0 | 6.0 | 0.00 | 0.25 | 0.01 | 97 | 1010.9 |
| 20260508013027 | 56 | 60 | 4.0 | 5.0 | 0.00 | 0.25 | 0.01 | 97 | 1011.0 |
| 20260508012019 | 56 | 58 | 4.0 | 7.0 | 0.00 | 0.25 | 0.01 | 97 | 1011.0 |
| 20260508011027 | 56 | 70 | 6.0 | 8.0 | 0.01 | 0.25 | 0.01 | 97 | 1011.0 |
| 20260508010019 | 57 | 60 | 5.0 | 6.0 | 0.01 | 0.25 | 0.01 | 97 | 1011.3 |
| 20260508005027 | 57 | 54 | 5.0 | 7.0 | 0.01 | 0.25 | 0.01 | 97 | 1011.6 |
| 20260508004020 | 57 | 42 | 5.0 | 7.0 | 0.01 | 0.25 | 0.01 | 97 | 1011.6 |
| 20260508003028 | 57 | 38 | 4.0 | 6.0 | 0.02 | 0.25 | 0.01 | 97 | 1011.7 |
| 20260508002019 | 57 | 47 | 4.0 | 5.0 | 0.02 | 0.25 | 0.01 | 97 | 1011.7 |
| 20260508001027 | 57 | 54 | 3.0 | 6.0 | 0.01 | 0.24 | 0.00 | 97 | 1011.7 |
| 20260508000019 | 57 | 47 | 4.0 | 6.0 | 0.01 | 0.24 | 0.00 | 96 | 1011.7 |
| 20260507235047 | 57 | 49 | 5.0 | 7.0 | 0.01 | 0.24 | 0.24 | 96 | 1011.8 |
| 20260507234019 | 57 | 36 | 6.0 | 9.0 | 0.02 | 0.24 | 0.24 | 96 | 1012.0 |
| 20260507233027 | 57 | 33 | 6.0 | 9.0 | 0.02 | 0.23 | 0.23 | 96 | 1012.2 |
| 20260507232019 | 57 | 41 | 6.0 | 10.0 | 0.02 | 0.23 | 0.23 | 96 | 1012.2 |
| 20260507231047 | 57 | 48 | 6.0 | 8.0 | 0.02 | 0.23 | 0.23 | 96 | 1012.2 |
| 20260507230019 | 57 | 49 | 6.0 | 8.0 | 0.03 | 0.23 | 0.23 | 96 | 1012.3 |
| 20260507225027 | 57 | 58 | 4.0 | 9.0 | 0.03 | 0.23 | 0.23 | 96 | 1012.5 |
| 20260507224019 | 57 | 64 | 5.0 | 9.0 | 0.02 | 0.22 | 0.22 | 96 | 1012.6 |
| 20260507223027 | 57 | 66 | 6.0 | 10.0 | 0.01 | 0.21 | 0.21 | 96 | 1012.5 |
| 20260507222039 | 57 | 64 | 6.0 | 11.0 | 0.01 | 0.21 | 0.21 | 96 | 1012.5 |
| 20260507221027 | 57 | 57 | 7.0 | 11.0 | 0.01 | 0.21 | 0.21 | 96 | 1012.5 |
| 20260507220039 | 56 | 55 | 9.0 | 12.0 | 0.00 | 0.20 | 0.20 | 96 | 1012.3 |
| 20260507215027 | 56 | 50 | 7.0 | 12.0 | 0.00 | 0.20 | 0.20 | 96 | 1012.3 |
| 20260507214019 | 56 | 50 | 7.0 | 9.0 | 0.00 | 0.20 | 0.20 | 96 | 1012.3 |
| 20260507213027 | 56 | 44 | 6.0 | 9.0 | 0.00 | 0.20 | 0.20 | 96 | 1012.3 |
| 20260507212019 | 56 | 57 | 6.0 | 10.0 | 0.00 | 0.20 | 0.20 | 96 | 1012.2 |
| 20260507211027 | 56 | 48 | 6.0 | 9.0 | 0.00 | 0.20 | 0.20 | 96 | 1012.2 |
| 20260507210039 | 57 | 45 | 6.0 | 8.0 | 0.01 | 0.20 | 0.20 | 96 | 1012.4 |
| 20260507205047 | 57 | 34 | 6.0 | 9.0 | 0.01 | 0.20 | 0.20 | 96 | 1012.2 |
| 20260507204059 | 57 | 43 | 7.0 | 10.0 | 0.01 | 0.20 | 0.20 | 96 | 1012.1 |
| 20260507203030 | 57 | 42 | 8.0 | 11.0 | 0.01 | 0.20 | 0.20 | 96 | 1012.0 |
| 20260507202018 | 57 | 43 | 8.0 | 11.0 | 0.02 | 0.20 | 0.20 | 96 | 1012.0 |
| 20260507201207 | 57 | 42 | 7.0 | 11.0 | 0.02 | 0.20 | 0.20 | 96 | 1012.0 |
| 20260507200019 | 57 | 33 | 7.0 | 9.0 | 0.01 | 0.19 | 0.19 | 96 | 1011.9 |
| 20260507195028 | 57 | 34 | 5.0 | 8.0 | 0.01 | 0.19 | 0.19 | 96 | 1011.7 |
| 20260507194019 | 57 | 25 | 5.0 | 6.0 | 0.01 | 0.19 | 0.19 | 96 | 1011.7 |
| 20260507193047 | 57 | 32 | 6.0 | 9.0 | 0.01 | 0.19 | 0.19 | 96 | 1011.4 |
| 20260507192039 | 57 | 30 | 5.0 | 8.0 | 0.00 | 0.18 | 0.18 | 96 | 1011.5 |
| 20260507191027 | 57 | 31 | 6.0 | 10.0 | 0.00 | 0.18 | 0.18 | 95 | 1011.4 |
| 20260507190019 | 57 | 43 | 6.0 | 9.0 | 0.00 | 0.18 | 0.18 | 95 | 1011.3 |
| 20260507185027 | 57 | 53 | 6.0 | 10.0 | 0.01 | 0.18 | 0.18 | 95 | 1011.3 |
| 20260507184019 | 58 | 50 | 6.0 | 8.0 | 0.01 | 0.18 | 0.18 | 95 | 1011.2 |
| 20260507183042 | 57 | 68 | 4.0 | 6.0 | 0.01 | 0.18 | 0.18 | 95 | 1011.1 |
| 20260507182019 | 58 | 58 | 5.0 | 6.0 | 0.02 | 0.18 | 0.18 | 95 | 1010.8 |
| 20260507181027 | 58 | 64 | 4.0 | 7.0 | 0.02 | 0.18 | 0.18 | 95 | 1010.6 |
| 20260507180021 | 57 | 45 | 4.0 | 6.0 | 0.03 | 0.18 | 0.18 | 95 | 1010.5 |
| 20260507175027 | 57 | 58 | 5.0 | 7.0 | 0.03 | 0.17 | 0.17 | 94 | 1010.4 |
| 20260507174019 | 58 | 34 | 6.0 | 8.0 | 0.05 | 0.17 | 0.17 | 94 | 1010.4 |
| 20260507173047 | 58 | 57 | 6.0 | 10.0 | 0.06 | 0.17 | 0.17 | 94 | 1010.5 |
| 20260507172019 | 58 | 57 | 7.0 | 10.0 | 0.07 | 0.16 | 0.16 | 94 | 1010.4 |
| 20260507171027 | 58 | 56 | 5.0 | 8.0 | 0.09 | 0.16 | 0.16 | 94 | 1010.5 |
| 20260507170019 | 58 | 52 | 7.0 | 10.0 | 0.10 | 0.15 | 0.15 | 94 | 1010.5 |
| 20260507165038 | 58 | 59 | 6.0 | 9.0 | 0.10 | 0.14 | 0.14 | 93 | 1010.6 |
| 20260507164019 | 58 | 60 | 6.0 | 11.0 | 0.08 | 0.12 | 0.12 | 93 | 1010.8 |
| 20260507163027 | 58 | 69 | 7.0 | 11.0 | 0.08 | 0.11 | 0.11 | 93 | 1010.6 |
| 20260507162019 | 59 | 62 | 5.0 | 11.0 | 0.07 | 0.09 | 0.09 | 93 | 1010.7 |
| 20260507161027 | 59 | 67 | 5.0 | 10.0 | 0.06 | 0.07 | 0.07 | 92 | 1010.7 |
| 20260507160019 | 59 | 60 | 5.0 | 11.0 | 0.04 | 0.05 | 0.05 | 92 | 1010.7 |
| 20260507155047 | 59 | 71 | 3.0 | 6.0 | 0.03 | 0.04 | 0.04 | 91 | 1010.8 |
| 20260507154019 | 59 | 59 | 3.0 | 5.0 | 0.03 | 0.04 | 0.04 | 91 | 1010.6 |
| 20260507153027 | 60 | 72 | 4.0 | 10.0 | 0.02 | 0.03 | 0.03 | 90 | 1010.6 |
| 20260507152039 | 60 | 70 | 4.0 | 6.0 | 0.01 | 0.02 | 0.02 | 88 | 1010.7 |
| 20260507151027 | 60 | 75 | 6.0 | 10.0 | 0.00 | 0.01 | 0.01 | 87 | 1010.6 |
| 20260507150019 | 60 | 69 | 7.0 | 13.0 | 0.00 | 0.01 | 0.01 | 87 | 1010.7 |
| 20260507145027 | 61 | 70 | 7.0 | 16.0 | 0.00 | 0.01 | 0.01 | 86 | 1010.7 |
| 20260507144019 | 62 | 63 | 6.0 | 14.0 | 0.00 | 0.01 | 0.01 | 85 | 1010.8 |
| 20260507143027 | 62 | 69 | 7.0 | 11.0 | 0.00 | 0.01 | 0.01 | 85 | 1010.7 |
| 20260507142019 | 63 | 66 | 6.0 | 12.0 | 0.00 | 0.01 | 0.01 | 83 | 1010.7 |
| 20260507141027 | 63 | 54 | 7.0 | 12.0 | 0.00 | 0.01 | 0.01 | 80 | 1010.9 |
| 20260507140039 | 65 | 327 | 5.0 | 12.0 | 0.00 | 0.01 | 0.01 | 76 | 1011.0 |
| 20260507135027 | 65 | 34 | 5.0 | 11.0 | 0.00 | 0.01 | 0.01 | 71 | 1011.0 |
| 20260507134019 | 65 | 59 | 6.0 | 13.0 | 0.00 | 0.01 | 0.01 | 70 | 1010.9 |
| 20260507133027 | 65 | 65 | 6.0 | 12.0 | 0.00 | 0.01 | 0.01 | 72 | 1011.0 |
| 20260507132059 | 65 | 64 | 8.0 | 13.0 | 0.00 | 0.01 | 0.01 | 73 | 1011.0 |
| 20260507131027 | 65 | 60 | 8.0 | 15.0 | 0.00 | 0.01 | 0.01 | 74 | 1011.1 |
| 20260507130039 | 65 | 58 | 8.0 | 14.0 | 0.00 | 0.01 | 0.01 | 74 | 1011.3 |
| 20260507125048 | 65 | 58 | 6.0 | 11.0 | 0.00 | 0.01 | 0.01 | 73 | 1011.3 |
| 20260507124019 | 65 | 60 | 8.0 | 14.0 | 0.00 | 0.01 | 0.01 | 72 | 1011.3 |
| 20260507123031 | 66 | 63 | 8.0 | 13.0 | 0.00 | 0.03 | 0.01 | 71 | 1011.3 |
| 20260507122019 | 66 | 70 | 6.0 | 14.0 | 0.00 | 0.11 | 0.01 | 70 | 1011.4 |
| 20260507121028 | 66 | 64 | 10.0 | 16.0 | 0.00 | 0.19 | 0.01 | 71 | 1011.4 |
| 20260507120019 | 66 | 62 | 8.0 | 16.0 | 0.00 | 0.37 | 0.01 | 71 | 1011.6 |
| 20260507115027 | 67 | 67 | 11.0 | 17.0 | 0.00 | 0.55 | 0.01 | 70 | 1011.7 |
| 20260507114019 | 65 | 56 | 7.0 | 14.0 | 0.00 | 0.61 | 0.01 | 73 | 1011.9 |
| 20260507113027 | 65 | 77 | 8.0 | 14.0 | 0.00 | 0.63 | 0.01 | 73 | 1011.9 |
| 20260507112019 | 64 | 68 | 7.0 | 12.0 | 0.00 | 0.71 | 0.01 | 75 | 1012.1 |
| 20260507111047 | 65 | 62 | 8.0 | 14.0 | 0.00 | 0.71 | 0.01 | 77 | 1012.1 |
| 20260507110019 | 65 | 59 | 7.0 | 12.0 | 0.00 | 0.71 | 0.01 | 75 | 1012.1 |
| 20260507105030 | 65 | 73 | 11.0 | 18.0 | 0.00 | 0.71 | 0.01 | 73 | 1012.2 |
| 20260507104019 | 66 | 68 | 10.0 | 18.0 | 0.00 | 0.71 | 0.01 | 73 | 1012.1 |
| 20260507103047 | 66 | 64 | 10.0 | 17.0 | 0.00 | 0.71 | 0.01 | 72 | 1012.2 |
| 20260507102019 | 66 | 79 | 10.0 | 18.0 | 0.00 | 0.71 | 0.01 | 72 | 1012.2 |